Location: ????????
(55.0559°N, 39.1270°E)
Time: 17:18:08
(UTC+00:00)

Meteor 2-5 Rocket - Pass Details

Date: 15 November 2025
Orbit: 832 x 911 km, 81.2° (Epoch: 14 December)

Event Time Altitude Azimuth Distance (km) Brightness Sun altitude
Exits shadow 01:36:57 42° 178° (S) 1,260 4.5 -28.1°
Maximum altitude 01:39:03 77° 101° (E) 915 3.8 -27.8°
Drops below altitude 10° 01:44:50 10° 16° (NNE) 2,538 6.4 -26.9°
Sets 01:47:15 0° 16° (NNE) 3,468 7.2 -26.6°
